Weather History for KLTS - March, 2012

Change the Weather History Date:

Saturday, March 31, 2012

  Actual Average Record
Temperature  
Mean Temperature 68 °F -  
Max Temperature 81 °F 68 °F 88 °F (2015)
Min Temperature 55 °F 44 °F 32 °F (2003)
Cooling Degree Days 3    
Growing Degree Days 18 (Base 50)    
Moisture  
Dew Point 63 °F    
Average Humidity 95    
Maximum Humidity 100    
Minimum Humidity 60    
Precipitation  
Precipitation 0.00 in - - ()
Sea Level Pressure  
Sea Level Pressure 29.78 in    
Wind  
Wind Speed 6 mph (NE)    
Max Wind Speed 15 mph    
Max Gust Speed -    
Visibility 4 miles    
Events Fog    
Averages and records for this station are not official NWS values.
T = Trace of Precipitation, MM = Missing Value Source: NWS Daily Summary

Daily Weather History Graph

Daily Weather History Graph

Search for Another Location

Airport or City:

Trip Planner

Search our weather history database for the weather conditions in past years. The results will help you decide how hot, cold, wet, or windy it might be!

Date:

Astronomy

Mar. 31, 2012 Rise Set
Actual Time 7:24 AM CDT 7:57 PM CDT
Civil Twilight 6:59 AM CDT 8:23 PM CDT
Nautical Twilight 6:29 AM CDT 8:53 PM CDT
Astronomical Twilight 5:59 AM CDT 9:23 PM CDT
Moon 1:42 PM CDT (3/31) 3:07 AM CDT (3/31)
Length of Visible Light 13h 23m
Length of Day
12h 33m
First Quarter, 59% of the Moon is Illuminated
Mar 31
First Quarter
Apr 6
Full
Apr 13
Last Quarter
Apr 21
New
Apr 29
First Quarter

Hourly Weather History & Observations

Time (CDT) Temp. Heat Index Dew Point Humidity Pressure Visibility Wind Dir Wind Speed Gust Speed Precip Events Conditions
12:55 AM 62.8 °F - 62.6 °F 99% 29.78 in 10.0 mi NE 5.8 mph - N/A   Clear
1:55 AM 60.3 °F - 60.3 °F 100% 29.77 in 8.0 mi ENE 4.6 mph - N/A   Clear
2:41 AM 62.6 °F - 62.6 °F 100% 29.77 in 6.0 mi NE 5.8 mph - N/A   Clear
2:47 AM 62.6 °F - 62.6 °F 100% 29.76 in 6.0 mi NE 4.6 mph - N/A   Clear
2:55 AM 61.7 °F - 61.7 °F 100% 29.77 in 6.0 mi NE 5.8 mph - N/A   Clear
2:57 AM 60.8 °F - 60.8 °F 100% 29.77 in 5.0 mi NE 4.6 mph - N/A   Clear
3:01 AM 60.8 °F - 60.8 °F 100% 29.77 in 5.0 mi NE 5.8 mph - N/A   Clear
3:05 AM 59.0 °F - 59.0 °F 100% 29.77 in 4.0 mi NE 5.8 mph - N/A   Clear
3:16 AM 59.0 °F - 59.0 °F 100% 29.77 in 5.0 mi NE 6.9 mph - N/A   Clear
3:35 AM 60.8 °F - 60.8 °F 100% 29.76 in 5.0 mi NE 6.9 mph - N/A   Clear
3:55 AM 59.0 °F - 59.0 °F 100% 29.76 in 5.0 mi NE 4.6 mph - N/A   Clear
4:01 AM 57.2 °F - 57.2 °F 100% 29.76 in 5.0 mi NE 4.6 mph - N/A   Clear
4:12 AM 57.2 °F - 57.2 °F 100% 29.76 in 4.0 mi NE 3.5 mph - N/A   Clear
4:18 AM 57.2 °F - 57.2 °F 100% 29.75 in 2.5 mi NNE 4.6 mph - N/A   Clear
4:28 AM 57.2 °F - 57.2 °F 100% 29.75 in 3.0 mi NE 5.8 mph - N/A   Clear
4:36 AM 57.2 °F - 57.2 °F 100% 29.75 in 3.0 mi NNE 4.6 mph - N/A   Clear
4:39 AM 57.2 °F - 57.2 °F 100% 29.75 in 2.5 mi NNE 4.6 mph - N/A   Clear
4:47 AM 57.2 °F - 57.2 °F 100% 29.75 in 2.0 mi North 3.5 mph - N/A   Clear
4:55 AM 57.7 °F - 57.7 °F 100% 29.75 in 3.0 mi NNE 4.6 mph - N/A   Clear
4:58 AM 57.2 °F - 57.2 °F 100% 29.75 in 1.8 mi North 5.8 mph - N/A   Clear
5:00 AM 57.2 °F - 57.2 °F 100% 29.75 in 1.5 mi North 6.9 mph - N/A   Clear
5:03 AM 55.4 °F - 55.4 °F 100% 29.76 in 1.0 mi North 6.9 mph - N/A   Clear
5:06 AM 55.4 °F - 55.4 °F 100% 29.76 in 1.0 mi North 6.9 mph - N/A   Clear
5:07 AM 55.4 °F - 55.4 °F 100% 29.76 in 0.8 mi North 6.9 mph - N/A   Clear
5:08 AM 57.2 °F - 57.2 °F 100% 29.76 in 1.0 mi NNW 6.9 mph - N/A   Clear
5:13 AM 57.2 °F - 57.2 °F 100% 29.76 in 1.5 mi North 6.9 mph - N/A   Clear
5:14 AM 57.2 °F - 57.2 °F 100% 29.76 in 1.8 mi North 6.9 mph - N/A   Clear
5:24 AM 57.2 °F - 57.2 °F 100% 29.77 in 2.5 mi NNE 6.9 mph - N/A   Clear
5:29 AM 59.0 °F - 59.0 °F 100% 29.77 in 2.5 mi NE 5.8 mph - N/A   Clear
5:43 AM 59.0 °F - 59.0 °F 100% 29.77 in 2.0 mi NNW 3.5 mph - N/A   Mostly Cloudy
5:55 AM 59.7 °F - 59.7 °F 100% 29.78 in 3.0 mi North 3.5 mph - N/A   Mostly Cloudy
5:57 AM 60.8 °F - 60.8 °F 100% 29.78 in 3.0 mi NNW 3.5 mph - N/A   Overcast
6:05 AM 60.8 °F - 60.8 °F 100% 29.78 in 4.0 mi North 3.5 mph - N/A   Overcast
6:08 AM 60.8 °F - 60.8 °F 100% 29.78 in 4.0 mi North 3.5 mph - N/A   Overcast
6:15 AM 62.6 °F - 62.6 °F 100% 29.78 in 2.5 mi North 3.5 mph - N/A   Overcast
6:17 AM 62.6 °F - 62.6 °F 100% 29.78 in 2.5 mi North 3.5 mph - N/A   Overcast
6:22 AM 62.6 °F - 62.6 °F 100% 29.78 in 1.0 mi North 3.5 mph - N/A   Overcast
6:25 AM 62.6 °F - 62.6 °F 100% 29.78 in 0.8 mi North 4.6 mph - N/A   Overcast
6:32 AM 62.6 °F - 62.6 °F 100% 29.78 in 0.5 mi NNE 4.6 mph - N/A Fog Fog
6:35 AM 62.6 °F - 62.6 °F 100% 29.78 in 0.5 mi NNE 4.6 mph - N/A Fog Fog
6:36 AM 62.6 °F - 62.6 °F 100% 29.78 in 0.8 mi NNE 4.6 mph - N/A   Overcast
6:39 AM 62.6 °F - 62.6 °F 100% 29.78 in 0.5 mi NNE 4.6 mph - N/A Fog Fog
6:44 AM 62.6 °F - 62.6 °F 100% 29.78 in 0.5 mi NNE 5.8 mph - N/A Fog Fog
6:55 AM 63.1 °F - 63.1 °F 100% 29.79 in 0.5 mi NNE 4.6 mph - N/A Fog Fog
7:07 AM 64.4 °F - 64.4 °F 100% 29.79 in 0.5 mi NE 4.6 mph - N/A Fog Fog
7:28 AM 64.4 °F - 64.4 °F 100% 29.80 in 0.5 mi NE 4.6 mph - N/A Fog Fog
7:36 AM 64.4 °F - 64.4 °F 100% 29.80 in 0.2 mi NE 4.6 mph - N/A Fog Fog
7:44 AM 64.4 °F - 64.4 °F 100% 29.80 in 0.2 mi NNE 5.8 mph - N/A Fog Fog
7:55 AM 64.2 °F - 64.2 °F 100% 29.81 in 0.5 mi NE 5.8 mph - N/A Fog Fog
7:59 AM 64.4 °F - 64.4 °F 100% 29.81 in 0.5 mi NE 5.8 mph - N/A Fog Fog
8:03 AM 64.4 °F - 64.4 °F 100% 29.81 in 0.5 mi ENE 4.6 mph - N/A Fog Fog
8:05 AM 64.4 °F - 64.4 °F 100% 29.81 in 0.8 mi NE 4.6 mph - N/A   Mist
8:17 AM 64.4 °F - 64.4 °F 100% 29.81 in 0.8 mi NE 4.6 mph - N/A   Mist
8:18 AM 64.4 °F - 64.4 °F 100% 29.81 in 1.0 mi NE 4.6 mph - N/A   Mist
8:20 AM 64.4 °F - 64.4 °F 100% 29.81 in 1.0 mi NE 4.6 mph - N/A   Mist
8:23 AM 64.4 °F - 64.4 °F 100% 29.81 in 1.2 mi NE 5.8 mph - N/A   Overcast
8:55 AM 64.9 °F - 64.9 °F 100% 29.81 in 0.8 mi NE 6.9 mph - N/A   Overcast
9:55 AM 65.8 °F - 65.8 °F 100% 29.83 in 0.8 mi ENE 5.8 mph - N/A   Overcast
10:55 AM 67.1 °F - 67.1 °F 100% 29.84 in 1.2 mi East 5.8 mph - N/A   Overcast
11:07 AM 68.0 °F - 68.0 °F 100% 29.83 in 1.5 mi East 8.1 mph - N/A   Overcast
11:38 AM 68.0 °F - 68.0 °F 100% 29.84 in 2.0 mi ESE 5.8 mph - N/A   Overcast
11:46 AM 68.0 °F - 68.0 °F 100% 29.83 in 9.0 mi ESE 5.8 mph - N/A   Overcast
11:55 AM 69.1 °F - 68.9 °F 99% 30.01 in 2.5 mi East 4.6 mph - N/A   Overcast
12:08 PM 69.8 °F - 68.0 °F 94% 29.83 in 3.0 mi East 6.9 mph - N/A   Overcast
12:47 PM 71.6 °F - 68.0 °F 88% 29.81 in 5.0 mi ENE 8.1 mph - N/A   Overcast
12:55 PM 72.0 °F - 68.0 °F 87% 29.81 in 5.0 mi NE 5.8 mph - N/A   Overcast
1:28 PM 73.4 °F - 68.0 °F 83% 29.81 in 10.0 mi SSE 3.5 mph - N/A   Mostly Cloudy
1:55 PM 74.3 °F - 67.8 °F 80% 29.80 in 10.0 mi Calm Calm - N/A   Mostly Cloudy
1:57 PM 75.2 °F - 68.0 °F 78% 29.80 in 10.0 mi Variable 4.6 mph - N/A   Scattered Clouds
2:10 PM 75.2 °F - 68.0 °F 78% 29.79 in 10.0 mi Calm Calm - N/A   Partly Cloudy
2:20 PM 77.0 °F - 68.0 °F 74% 29.79 in 10.0 mi SE 4.6 mph - N/A   Partly Cloudy
2:55 PM 77.7 °F - 68.0 °F 72% 29.77 in 10.0 mi ESE 5.8 mph - 0.00 in   Clear
3:55 PM 80.8 °F 83.6 °F 68.5 °F 66% 29.75 in 10.0 mi SE 8.1 mph - N/A   Clear
4:55 PM 81.3 °F 83.5 °F 66.4 °F 60% 29.73 in 10.0 mi East 10.4 mph - N/A   Clear
5:55 PM 81.0 °F 83.3 °F 66.7 °F 62% 29.72 in 10.0 mi SE 12.7 mph - N/A   Clear
6:55 PM 79.2 °F - 66.2 °F 64% 29.72 in 10.0 mi SE 9.2 mph - N/A   Clear
7:55 PM 74.5 °F - 67.6 °F 79% 29.72 in 10.0 mi ESE 6.9 mph - N/A   Clear
8:55 PM 70.5 °F - 68.0 °F 92% 29.72 in 10.0 mi ESE 11.5 mph - N/A   Clear
9:55 PM 69.1 °F - 67.6 °F 95% 29.70 in 10.0 mi East 13.8 mph - N/A   Clear
10:55 PM 70.2 °F - 67.1 °F 90% 29.72 in 10.0 mi ESE 11.5 mph - N/A   Clear
11:55 PM 68.4 °F - 66.0 °F 92% 29.71 in 10.0 mi SE 15.0 mph - N/A   Clear